Fort Dodge, IA

4:27 AM CST on February 21, 2017 (GMT -0600)
Fort Dodge Regional

Weather History for KFOD - January, 2014

Change the Weather History Date:

Sunday, January 5, 2014

  Actual Average Record
Temperature  
Mean Temperature -6 °F -  
Max Temperature 3 °F 23 °F 64 °F (2012)
Min Temperature -14 °F 6 °F -17 °F (1979)
Degree Days  
Heating Degree Days 70    
Moisture  
Dew Point -13 °F    
Average Humidity 62    
Maximum Humidity 72    
Minimum Humidity 46    
Precipitation  
Precipitation 0.00 in - - ()
Sea Level Pressure  
Sea Level Pressure 30.33 in    
Wind  
Wind Speed 13 mph (NNW)    
Max Wind Speed 22 mph    
Max Gust Speed 36 mph    
Visibility 10 miles    
Events      
Averages and records for this station are not official NWS values.
T = Trace of Precipitation, MM = Missing Value Source: NWS Daily Summary

Daily Weather History Graph

Daily Weather History Graph

Search for Another Location

Airport or City:

Trip Planner

Search our weather history database for the weather conditions in past years. The results will help you decide how hot, cold, wet, or windy it might be!

Date:

Astronomy

Jan. 05, 2014 Rise Set
Actual Time 7:46 AM CST 4:58 PM CST
Civil Twilight 7:14 AM CST 5:29 PM CST
Nautical Twilight 6:39 AM CST 6:05 PM CST
Astronomical Twilight 6:05 AM CST 6:39 PM CST
Moon 10:21 AM CST (1/5) 10:34 PM CST (1/5)
Length of Visible Light 10h 14m
Length of Day
9h 11m
Waxing Crescent, 25% of the Moon is Illuminated
Jan 5
Waxing Crescent
Jan 7
First Quarter
Jan 15
Full
Jan 23
Last Quarter
Jan 30
New

Hourly Weather History & Observations

Time (CST) Temp. Windchill Dew Point Humidity Pressure Visibility Wind Dir Wind Speed Gust Speed Precip Events Conditions
12:15 AM 3.2 °F -13.1 °F -4.0 °F 72% 30.22 in 10.0 mi North 11.5 mph 18.4 mph N/A   Clear
12:35 AM 3.2 °F -13.9 °F -5.8 °F 66% 30.22 in 10.0 mi North 12.7 mph 19.6 mph N/A   Clear
12:55 AM 3.2 °F -11.3 °F -5.8 °F 66% 30.22 in 10.0 mi North 9.2 mph - N/A   Scattered Clouds
1:15 AM 1.4 °F -11.3 °F -5.8 °F 72% 30.23 in 10.0 mi North 6.9 mph - N/A   Overcast
1:35 AM 1.4 °F -14.5 °F -5.8 °F 72% 30.24 in 10.0 mi North 10.4 mph 18.4 mph N/A   Mostly Cloudy
1:55 AM 1.4 °F -14.5 °F -5.8 °F 72% 30.24 in 10.0 mi North 10.4 mph 17.3 mph N/A   Scattered Clouds
2:15 AM 1.4 °F -14.5 °F -7.6 °F 66% 30.24 in 10.0 mi North 10.4 mph 19.6 mph N/A   Overcast
2:35 AM 1.4 °F -15.3 °F -7.6 °F 66% 30.24 in 10.0 mi North 11.5 mph 18.4 mph N/A   Overcast
2:55 AM -0.4 °F -14.7 °F -7.6 °F 72% 30.25 in 10.0 mi North 8.1 mph 18.4 mph N/A   Overcast
3:15 AM -0.4 °F -17.6 °F -7.6 °F 72% 30.26 in 10.0 mi North 11.5 mph 18.4 mph N/A   Overcast
3:35 AM -0.4 °F -19.2 °F -9.4 °F 66% 30.26 in 10.0 mi North 13.8 mph 20.7 mph N/A   Overcast
3:55 AM -0.4 °F -18.4 °F -9.4 °F 66% 30.26 in 10.0 mi North 12.7 mph 18.4 mph N/A   Overcast
4:15 AM -0.4 °F -17.6 °F -9.4 °F 66% 30.26 in 10.0 mi North 11.5 mph 18.4 mph N/A   Overcast
4:35 AM -0.4 °F -18.4 °F -9.4 °F 66% 30.26 in 10.0 mi North 12.7 mph 18.4 mph N/A   Overcast
4:55 AM -0.4 °F -19.9 °F -9.4 °F 66% 30.27 in 10.0 mi North 15.0 mph 20.7 mph N/A   Overcast
5:15 AM -2.2 °F -19.9 °F -11.2 °F 66% 30.27 in 10.0 mi North 11.5 mph 21.9 mph N/A   Overcast
5:35 AM -2.2 °F -20.7 °F -11.2 °F 66% 30.28 in 10.0 mi North 12.7 mph 21.9 mph N/A   Overcast
5:55 AM -2.2 °F -20.7 °F -11.2 °F 66% 30.28 in 10.0 mi North 12.7 mph 20.7 mph N/A   Overcast
6:15 AM -2.2 °F -22.2 °F -11.2 °F 66% 30.29 in 10.0 mi North 15.0 mph 21.9 mph N/A   Overcast
6:35 AM -2.2 °F -22.2 °F - N/A% 30.30 in 10.0 mi North 15.0 mph 21.9 mph N/A   Overcast
6:55 AM -2.2 °F -22.2 °F - N/A% 30.30 in 10.0 mi North 15.0 mph 21.9 mph N/A   Overcast
7:15 AM -2.2 °F -21.5 °F -11.2 °F 66% 30.31 in 10.0 mi North 13.8 mph 21.9 mph N/A   Overcast
7:35 AM -4.0 °F -24.5 °F -13.0 °F 65% 30.32 in 10.0 mi NNW 15.0 mph 18.4 mph N/A   Overcast
7:55 AM -4.0 °F -23.7 °F -13.0 °F 65% 30.33 in 10.0 mi NNW 13.8 mph 21.9 mph N/A   Overcast
8:15 AM -4.0 °F -23.7 °F -13.0 °F 65% 30.33 in 10.0 mi North 13.8 mph 19.6 mph N/A   Mostly Cloudy
8:35 AM -4.0 °F -24.5 °F -13.0 °F 65% 30.33 in 10.0 mi North 15.0 mph 19.6 mph N/A   Scattered Clouds
8:55 AM -4.0 °F -25.2 °F -14.8 °F 60% 30.33 in 10.0 mi North 16.1 mph 23.0 mph N/A   Clear
9:15 AM -4.0 °F -20.2 °F -13.0 °F 65% 30.34 in 10.0 mi NNW 9.2 mph 18.4 mph N/A   Clear
9:35 AM -4.0 °F -23.7 °F -14.8 °F 60% 30.33 in 10.0 mi NNW 13.8 mph 21.9 mph N/A   Clear
9:55 AM -4.0 °F -23.7 °F -13.0 °F 65% 30.33 in 10.0 mi North 13.8 mph 23.0 mph N/A   Clear
10:15 AM -2.2 °F -20.7 °F -11.2 °F 66% 30.34 in 10.0 mi North 12.7 mph 20.7 mph N/A   Clear
10:35 AM -2.2 °F -22.2 °F -13.0 °F 60% 30.34 in 10.0 mi North 15.0 mph 20.7 mph N/A   Clear
10:55 AM -0.4 °F -19.2 °F -11.2 °F 60% 30.34 in 10.0 mi North 13.8 mph 19.6 mph N/A   Clear
11:15 AM -0.4 °F -19.9 °F -11.2 °F 60% 30.34 in 10.0 mi North 15.0 mph 21.9 mph N/A   Clear
11:35 AM -0.4 °F -19.9 °F -9.4 °F 66% 30.34 in 10.0 mi NNW 15.0 mph 23.0 mph N/A   Clear
11:55 AM -0.4 °F -14.7 °F -9.4 °F 66% 30.34 in 10.0 mi NNW 8.1 mph 23.0 mph N/A   Clear
12:15 PM 1.4 °F -18.2 °F -7.6 °F 66% 30.33 in 10.0 mi North 16.1 mph 21.9 mph N/A   Clear
12:35 PM 1.4 °F -19.4 °F -7.6 °F 66% 30.33 in 10.0 mi NNW 18.4 mph 25.3 mph N/A   Partly Cloudy
12:55 PM 1.4 °F -17.6 °F -7.6 °F 66% 30.32 in 10.0 mi North 15.0 mph 21.9 mph N/A   Clear
1:15 PM 3.2 °F -15.9 °F -7.6 °F 61% 30.32 in 10.0 mi NNW 16.1 mph 21.9 mph N/A   Scattered Clouds
1:35 PM 3.2 °F -10.3 °F -7.6 °F 61% 30.31 in 10.0 mi NNW 8.1 mph 25.3 mph N/A   Mostly Cloudy
1:55 PM 3.2 °F -13.9 °F -7.6 °F 61% 30.31 in 10.0 mi NW 12.7 mph 23.0 mph N/A   Mostly Cloudy
2:15 PM 3.2 °F -15.3 °F -7.6 °F 61% 30.32 in 10.0 mi NNW 15.0 mph 31.1 mph N/A   Overcast
2:35 PM 3.2 °F -13.9 °F -9.4 °F 56% 30.32 in 10.0 mi NNW 12.7 mph 24.2 mph N/A   Mostly Cloudy
2:55 PM 1.4 °F -17.6 °F -9.4 °F 61% 30.33 in 10.0 mi NNW 15.0 mph 24.2 mph N/A   Mostly Cloudy
3:15 PM 1.4 °F -16.1 °F -11.2 °F 56% 30.35 in 10.0 mi NNW 12.7 mph 29.9 mph N/A   Overcast
3:35 PM 1.4 °F -18.2 °F -11.2 °F 56% 30.35 in 10.0 mi NW 16.1 mph 27.6 mph N/A   Scattered Clouds
3:55 PM -0.4 °F -19.9 °F -13.0 °F 55% 30.36 in 10.0 mi NW 15.0 mph 25.3 mph N/A   Partly Cloudy
4:15 PM -0.4 °F -20.5 °F -14.8 °F 51% 30.36 in 10.0 mi NW 16.1 mph 28.8 mph N/A   Partly Cloudy
4:35 PM -2.2 °F -25.7 °F -16.6 °F 50% 30.37 in 10.0 mi NW 21.9 mph 35.7 mph N/A   Clear
4:55 PM -2.2 °F -23.5 °F -18.4 °F 46% 30.38 in 10.0 mi NNW 17.3 mph 32.2 mph N/A   Clear
5:15 PM -4.0 °F -22.1 °F -18.4 °F 50% 30.38 in 10.0 mi NW 11.5 mph 19.6 mph N/A   Clear
5:35 PM -5.8 °F -28.8 °F -18.4 °F 55% 30.38 in 10.0 mi NW 18.4 mph 24.2 mph N/A   Clear
5:55 PM -5.8 °F -26.8 °F -18.4 °F 55% 30.38 in 10.0 mi NW 15.0 mph 24.2 mph N/A   Partly Cloudy
6:15 PM -5.8 °F -27.5 °F -18.4 °F 55% 30.38 in 10.0 mi NW 16.1 mph 25.3 mph N/A   Clear
6:35 PM -5.8 °F -27.5 °F -18.4 °F 55% 30.38 in 10.0 mi NW 16.1 mph 25.3 mph N/A   Clear
6:55 PM -7.6 °F -28.3 °F -18.4 °F 59% 30.39 in 10.0 mi NW 13.8 mph 25.3 mph N/A   Scattered Clouds
7:15 PM -7.6 °F -26.6 °F -18.4 °F 59% 30.40 in 5.0 mi NNW 11.5 mph 19.6 mph N/A   Overcast
7:35 PM -7.6 °F -29.1 °F -16.6 °F 65% 30.40 in 7.0 mi NW 15.0 mph 25.3 mph N/A   Overcast
7:55 PM -9.4 °F -33.5 °F -18.4 °F 65% 30.40 in 10.0 mi NNW 18.4 mph 25.3 mph N/A   Mostly Cloudy
8:15 PM -9.4 °F -27.9 °F -20.2 °F 59% 30.40 in 10.0 mi NW 10.4 mph 21.9 mph N/A   Partly Cloudy
8:35 PM -9.4 °F -31.4 °F -22.0 °F 54% 30.40 in 10.0 mi NW 15.0 mph 25.3 mph N/A   Scattered Clouds
8:55 PM -9.4 °F -29.8 °F -22.0 °F 54% 30.41 in 10.0 mi NW 12.7 mph 24.2 mph N/A   Mostly Cloudy
9:15 PM -11.2 °F -34.4 °F -23.8 °F 54% 30.40 in 10.0 mi NW 16.1 mph 26.5 mph N/A   Clear
9:35 PM -11.2 °F -30.1 °F -23.8 °F 54% 30.40 in 10.0 mi NNW 10.4 mph 24.2 mph N/A   Mostly Cloudy
9:55 PM -11.2 °F -35.2 °F -25.6 °F 49% 30.41 in 10.0 mi NW 17.3 mph 29.9 mph N/A   Scattered Clouds
10:15 PM -13.0 °F -37.5 °F -25.6 °F 53% 30.40 in 10.0 mi NW 17.3 mph 28.8 mph N/A   Partly Cloudy
10:35 PM -13.0 °F -35.2 °F -23.8 °F 59% 30.39 in 10.0 mi NW 13.8 mph 23.0 mph N/A   Partly Cloudy
10:55 PM -14.8 °F -38.3 °F -23.8 °F 64% 30.39 in 10.0 mi NW 15.0 mph 26.5 mph N/A   Partly Cloudy
11:15 PM -14.8 °F -39.8 °F -23.8 °F 64% 30.39 in 10.0 mi NW 17.3 mph 24.2 mph N/A   Mostly Cloudy
11:35 PM -14.8 °F -40.5 °F -23.8 °F 64% 30.39 in 10.0 mi NW 18.4 mph 25.3 mph N/A   Mostly Cloudy
11:55 PM -14.8 °F -38.3 °F -25.6 °F 58% 30.38 in 10.0 mi NW 15.0 mph 24.2 mph N/A   Scattered Clouds